www.pogodaiklimat.ru

Погода и климат >> Архив погоды >> Бельгия >> Элзенборн


ПОГОДА в Элзенборне

  • Прогноз погоды в Элзенборне
  • Монитор погоды в Элзенборне

АРХИВ ПОГОДЫ в Элзенборне

Время (UTC), дата Ветер
(напр.,м/с)
 
Видим.   Явления Облачность Т
(С)
Тd
(С)
f
(%)
Тe
(С)
Тes
(С)
Комфортность P
(гПа)
Po
(гПа)
Тmin
(С)
Tmax
(С)
R
(мм)
R24
(мм)
S
(см)
11 12.01 ЮЗ 2
{6}
5000 м дымка н/о +1.6 +1.3 98 -2 -2 1022.0 953.3
10 12.01 З 3
{6}
2600 м дымка н/о +1.5 +1.1 97 -3 -3 1023.0 954.1
12 12.01 З 3
{10}
2700 м слаб. дождь {морось} н/о +2.0 +1.6 97 -2 -2 1021.2 952.7 0.3
13 12.01 З 3
{7}
1800 м дождь н/о +2.2 +2.1 99 -2 -2 1019.5 951.1
14 12.01 З 3
{8}
3900 м слаб. дождь н/о +2.9 +2.8 99 -1 -1 1018.2 950.1
15 12.01 З 4
{9}
7000 м дождь н/о +3.1 +3.0 99 -2 -2 1017.6 949.6
17 12.01 З 6
{11}
4900 м дождь н/о +4.0 +3.7 98 -2 -2 1016.5 948.8
16 12.01 З 5
{9}
3200 м слаб. дождь н/о +3.5 +3.4 99 -2 -2 1017.0 949.1
18 12.01 З 7
{12}
5000 м дождь н/о +3.9 +3.1 95 -2 -2 1016.2 948.4 +4.3 7
19 12.01 З 5
{10}
13 км слаб. дождь н/о +3.7 +3.2 97 -2 -2 1015.7 948.1
20 12.01 З 7
{12}
16 км {дождь} н/о +4.0 +3.0 93 -2 -2 1015.7 948.0
21 12.01 З 5
{12}
4000 м слаб. дождь {морось} н/о +3.9 +3.4 97 -1 -1 1015.5 947.8
23 12.01 З 6
{11}
3600 м сильн. морось {дождь} н/о +4.0 +3.5 97 -2 -2 1015.2 947.6
22 12.01 СЗ 5
{11}
3400 м дождь н/о +3.8 +3.3 97 -2 -2 1015.5 947.7
00 13.01 З 4
{12}
3700 м слаб. морось {дождь} н/о +3.9 +3.5 97 -1 -1 1015.0 947.3 5
01 13.01 З 4
{8}
1800 м слаб. дождь {морось} н/о +3.9 +3.6 98 -1 -1 1014.8 947.2
02 13.01 З 3
{7}
2900 м слаб. морось {дождь} н/о +4.0 +3.8 99 0 0 1014.5 946.9
03 13.01 З 3
{8}
5000 м слаб. дождь {морось} н/о +4.0 +3.8 99 0 0 1013.8 946.3
05 13.01 З 4
{8}
5000 м слаб. морось {дождь} н/о +4.5 +4.3 99 -0 -0 1012.2 945.0
04 13.01 З 4
{7}
2200 м слаб. дождь {морось} н/о +4.1 +4.0 99 -1 -1 1013.5 946.0
06 13.01 З 3
{8}
3000 м морось {дождь} н/о +4.8 +4.7 99 +1 +1 1011.2 944.1 +3.5 7
07 13.01 З 5
{9}
2500 м слаб. дождь {морось} н/о +5.0 +4.8 99 0 0 1010.7 943.7
08 13.01 З 5
{10}
5000 м слаб. дождь н/о +5.3 +5.0 98 +1 +1 1010.7 943.7
09 13.01 З 6
{11}
1500 м слаб. дождь {морось} н/о +5.5 +5.2 98 0 0 1010.2 943.3
11 13.01 З 7
{13}
300 м слаб. морось {дождь} н/о +5.4 +5.4 100 -0 -0 1008.7 941.9
10 13.01 З 7
{13}
400 м слаб. морось {дождь} н/о +5.4 +5.2 99 -0 -0 1009.5 942.6
12 13.01 З 6
{14}
2600 м слаб. дождь {морось} н/о +6.0 +5.9 99 +1 +1 1007.5 940.8
13 13.01 З 6
{12}
2400 м слаб. дождь н/о +6.0 +5.5 97 +1 +1 1007.2 940.6
14 13.01 З 6
{11}
2900 м дождь н/о +5.8 +5.6 99 +1 +1 1006.5 939.8
15 13.01 З 6
{12}
2000 м дождь н/о +6.1 +5.7 97 +1 +1 1006.1 939.6
17 13.01 СЗ 7
{15}
3300 м слаб. дождь н/о +5.8 +5.2 96 0 0 1006.1 939.5
16 13.01 З 6
{12}
1500 м дождь н/о +6.0 +5.6 97 +1 +1 1006.0 939.4
18 13.01 З 7
{15}
17 км {дождь} н/о +5.7 +4.8 94 0 0 1005.6 939.0 +6.1
19 13.01 З 7
{15}
2500 м слаб. дождь н/о +5.5 +4.3 92 0 0 1005.2 938.7
20 13.01 СЗ 7
{16}
7000 м слаб. дождь {морось} н/о +4.9 +3.9 93 -1 -1 1005.6 938.8
21 13.01 СЗ 5
{16}
20 км {дождь, морось} н/о +4.8 +3.5 91 -0 -0 1005.7 939.0
23 13.01 СЗ 5
{14}
8000 м дождь н/о +3.7 +2.3 91 -2 -2 1007.2 940.0
22 13.01 СЗ 4
{16}
20 км {дождь} н/о +3.9 +3.1 95 -1 -1 1006.7 939.6
00 14.01 СЗ 4
{16}
17 км {дождь, морось} н/о +3.7 +2.4 91 -1 -1 1007.3 940.2 5
01 14.01 СЗ 5
{12}
16 км н/о +3.3 +2.2 92 -2 -2 1008.2 940.8
02 14.01 СЗ 4
{12}
16 км слаб. дождь {морось} н/о +3.2 +2.0 92 -2 -2 1009.1 941.7
03 14.01 СЗ 5
{12}
13 км слаб. дождь {морось} н/о +3.0 +1.8 92 -2 -2 1009.6 942.1
05 14.01 СЗ 5
{11}
15 км {дождь, морось} н/о +2.7 +1.8 94 -3 -3 1010.2 942.6
04 14.01 СЗ 5
{11}
17 км {дождь} н/о +3.0 +1.7 91 -2 -2 1010.0 942.5
06 14.01 СЗ 6
{12}
3900 м дождь {морось} н/о +2.7 +1.6 92 -3 -3 1010.7 943.1 +2.7 5
07 14.01 СЗ 5
{13}
17 км слаб. морось {дождь} н/о +2.7 +1.2 90 -3 -3 1011.5 943.8
08 14.01 СЗ 6
{13}
20 км {морось} н/о +2.7 +1.3 90 -3 -3 1012.6 944.8
09 14.01 СЗ 5
{13}
4700 м слаб. дождь {морось} н/о +2.4 +1.8 96 -3 -3 1013.6 945.6
11 14.01 СЗ 4
{9}
20 км {дождь} н/о +2.5 +1.6 94 -3 -3 1014.8 946.8
10 14.01 СЗ 4
{9}
9000 м слаб. дождь {морось} н/о +2.2 +1.5 95 -3 -3 1014.3 946.3
12 14.01 СЗ 2
{13}
10 км слаб. снег {дождь} н/о +1.0 +0.6 97 -3 -3 1016.0 947.5 2
13 14.01 СЗ 3
{8}
20 км {снег, дождь} н/о +2.2 +0.9 91 -2 -2 1016.3 948.2
14 14.01 СЗ 4
{9}
5000 м слаб. дождь н/о +1.2 0.0 92 -4 -4 1017.2 948.7
15 14.01 СЗ 3
{9}
20 км {снег, дождь} н/о +0.8 -0.3 92 -4 -4 1018.2 949.6
17 14.01 СЗ 3
{7}
20 км н/о +0.1 -0.9 93 -5 -5 1020.0 951.0
16 14.01 СЗ 3
{8}
20 км {снег, дождь} н/о 0.0 -0.5 96 -5 -5 1019.5 950.5
18 14.01
{9}
19 км {снег, дождь} н/о -0.2 -0.8 96 1020.7 951.7 +2.7 2
19 14.01 СЗ 3
{7}
19 км н/о 0.0 -0.9 94 -5 -5 1021.2 952.2
20 14.01 СЗ 3
{7}
14 км н/о +0.1 -0.6 95 -5 -5 1021.8 952.8
21 14.01 СЗ 2
{7}
9000 м н/о +0.1 -0.4 96 -4 -4 1021.8 952.8
23 14.01 З 2
{5}
13 км {снег, дождь} н/о +0.1 -0.3 97 -4 -4 1022.5 953.4
22 14.01 СЗ 3
{5}
17 км н/о +0.2 -0.6 94 -5 -5 1022.1 953.0
00 15.01 З 2
{7}
12 км {снег, дождь} н/о +0.2 -0.4 96 -4 -4 1022.6 953.5
01 15.01 З 2
{4}
4900 м слаб. дождь н/о +0.3 -0.1 97 -4 -4 1022.7 953.6
02 15.01
{3}
2100 м слаб. снег {дождь} н/о 0.0 -0.1 99 1023.0 953.8
03 15.01
{4}
2900 м слаб. снег {дождь} н/о 0.0 0.0 100 1023.2 954.0
05 15.01
{5}
5000 м {снег, дождь} н/о +0.2 +0.1 99 1022.2 953.2
04 15.01
{5}
5000 м {снег, дождь} н/о -0.1 -0.1 100 1022.7 953.5
06 15.01
{5}
3700 м дымка {снег, дождь} н/о +0.3 +0.3 100 1022.0 952.9 -0.3 0.6
07 15.01 З 2
{5}
5000 м {дождь, морось} н/о +0.6 +0.6 100 -3 -3 1021.6 952.7
08 15.01 З 2
{7}
6000 м н/о +1.2 +1.0 99 -2 -2 1021.6 952.8
09 15.01 З 3
{7}
11 км {дождь, морось} н/о +1.7 +1.1 96 -3 -3 1021.8 953.2
11 15.01 З 2
{7}
15 км н/о +2.5 +1.4 92 -1 -1 1021.2 952.7
10 15.01 З 3
{6}
12 км н/о +2.0 +1.3 95 -2 -2 1021.7 953.1
12 15.01 З 3
{10}
20 км {дождь, морось} н/о +2.5 +0.7 88 -2 -2 1020.7 952.2 0.0
13 15.01 З 3
{9}
17 км н/о +2.5 +1.0 90 -2 -2 1020.3 952.0
14 15.01 З 3
{8}
19 км н/о +2.5 +1.1 90 -2 -2 1020.1 951.7
15 15.01 З 2
{8}
7000 м слаб. морось н/о +2.2 +1.5 95 -1 -1 1019.8 951.4
17 15.01 З 2
{8}
8000 м слаб. морось н/о +2.2 +1.7 96 -1 -1 1019.7 951.4
16 15.01 З 3
{8}
15 км слаб. морось н/о +2.4 +1.8 96 -2 -2 1019.7 951.3
18 15.01 З 3
{8}
12 км {морось} н/о +2.2 +1.7 96 -2 -2 1019.6 951.2 +2.6 0.3
19 15.01 З 3
{9}
18 км слаб. морось {дождь} н/о +2.2 +1.6 96 -2 -2 1019.5 951.1
20 15.01 З 3
{8}
12 км слаб. морось {дождь} н/о +2.2 +1.7 96 -2 -2 1019.2 950.8
21 15.01 З 2
{9}
8000 м слаб. морось {дождь} н/о +2.4 +2.3 99 -1 -1 1019.1 950.8
23 15.01 З 3
{7}
10 км слаб. морось н/о +2.2 +2.1 99 -2 -2 1018.2 950.0
22 15.01 З 2
{7}
3600 м морось н/о +2.4 +2.2 99 -1 -1 1018.8 950.6
00 16.01 З 2
{9}
2200 м слаб. морось {дождь} н/о +2.2 +2.1 99 -1 -1 1017.7 949.5 0.6
01 16.01 ЮЗ 3
{7}
2600 м морось н/о +2.0 +1.9 99 -3 -3 1017.5 949.2
02 16.01 ЮЗ 3
{7}
4000 м слаб. морось н/о +1.7 +1.7 100 -3 -3 1017.3 949.0
03 16.01 ЮЗ 2
{7}
6000 м {морось} н/о +1.7 +1.5 99 -2 -2 1016.8 948.5
05 16.01 ЮЗ 2
{7}
20 км н/о +1.4 +0.5 94 -2 -2 1015.5 947.1
04 16.01 З 2
{6}
11 км н/о +1.6 +1.2 97 -2 -2 1016.2 947.9
06 16.01 ЮЗ 3
{8}
15 км {морось} н/о +1.1 +0.1 93 -4 -4 1015.1 946.7 +1.1 0.9
07 16.01 ЮЗ 2
{6}
12 км н/о +0.8 0.0 94 -3 -3 1014.7 946.3
08 16.01 ЮЗ 2
{8}
15 км н/о +0.6 -0.3 94 -3 -3 1014.2 945.8
09 16.01 ЮЗ 2
{8}
13 км н/о +0.6 0.0 96 -3 -3 1014.2 945.8
11 16.01 ЮЗ 2
{6}
18 км н/о +1.0 -0.4 90 -3 -3 1012.7 944.4
10 16.01 ЮЗ 2
{6}
16 км н/о +0.7 -0.2 94 -3 -3 1013.7 945.4
12 16.01 ЮЗ 2
{8}
19 км н/о +1.2 -0.1 91 -2 -2 1011.6 943.5
13 16.01
{7}
20 км н/о +1.8 -0.3 86 1010.2 942.4
14 16.01
{6}
20 км н/о +1.8 0.0 88 1009.1 941.3
15 16.01
{7}
20 км н/о +1.7 -0.1 88 1008.3 940.6
17 16.01 ЮЗ 2
{7}
19 км н/о +1.1 -0.4 90 -2 -2 1007.5 939.6
16 16.01
{6}
20 км н/о +1.4 -0.2 89 1007.8 940.0
18 16.01 ЮЗ 2
{7}
16 км н/о +0.6 -0.5 92 -3 -3 1007.1 939.1 +2.1
19 16.01 ЮЗ 3
{9}
19 км н/о +1.0 -0.5 90 -4 -4 1006.7 938.9
20 16.01 ЮЗ 3
{9}
16 км н/о +1.1 -0.5 89 -3 -3 1006.3 938.6
21 16.01 ЮЗ 2
{9}
13 км н/о +1.1 -0.3 90 -2 -2 1006.1 938.3
23 16.01 ЮЗ 3
{7}
11 км слаб. морось н/о +1.2 +0.6 96 -3 -3 1005.3 937.7
22 16.01 ЮЗ 2
{6}
13 км н/о +1.2 0.0 92 -2 -2 1006.0 938.2
00 17.01 ЮЗ 2
{9}
2100 м слаб. дождь {морось} н/о +1.2 +1.0 99 -2 -2 1005.2 937.6 0.3
01 17.01 ЮЗ 2
{6}
2600 м слаб. дождь н/о +1.5 +1.4 99 -2 -2 1005.1 937.4
02 17.01 ЮЗ 3
{7}
4300 м слаб. дождь со снегом н/о +1.5 +1.4 99 -3 -3 1005.1 937.4
03 17.01 З 2
{7}
9000 м слаб. дождь н/о +1.5 +1.4 99 -2 -2 1005.0 937.4
05 17.01 ЮЗ 2
{6}
20 км слаб. дождь н/о +1.3 +1.1 99 -2 -2 1004.6 937.0
04 17.01 ЮЗ 2
{6}
20 км слаб. дождь н/о +1.1 +1.0 99 -3 -3 1004.8 937.2
06 17.01 ЮЗ 2
{7}
20 км {снег, дождь} н/о +1.2 +1.1 99 -2 -2 1004.6 937.0 +0.6 3
07 17.01 ЮЗ 2
{5}
20 км н/о +1.3 +1.1 99 -2 -2 1004.5 936.9
08 17.01 ЮЗ 2
{7}
3800 м слаб. дождь со снегом н/о +1.3 +0.9 97 -2 -2 1004.2 936.7
09 17.01 ЮЗ 2
{7}
20 км {дождь} н/о +1.6 +1.0 96 -2 -2 1004.2 936.8
11 17.01 ЮЗ 3
{8}
5000 м слаб. снег {дождь} н/о +0.8 +0.6 99 -4 -4 1004.2 936.5
10 17.01 ЮЗ 3
{9}
8000 м дождь н/о +1.6 +1.0 96 -3 -3 1004.2 936.6
12 17.01 З 3
{10}
8000 м слаб. дождь н/о +0.6 +0.5 99 -4 -4 1004.2 936.5 2
13 17.01 З 4
{10}
7000 м слаб. снег {дождь} н/о -0.1 -0.1 100 -6 -6 1005.5 937.5
14 17.01 З 6
{11}
2400 м слаб. дождь со снегом н/о 0.0 -0.3 98 -7 -7 1005.8 937.8
15 17.01 СЗ 5
{13}
5000 м слаб. снег {дождь} н/о -0.8 -1.4 96 -7 -7 1007.7 939.4
17 17.01 З 5
{10}
700 м снег н/о -1.4 -1.8 97 -8 -8 1009.8 941.3
16 17.01 З 5
{12}
6000 м слаб. снег н/о -1.0 -1.4 97 -8 -8 1008.8 940.4
18 17.01 З 5
{13}
17 км {снег, дождь} н/о -1.3 -2.4 92 -8 -8 1010.6 941.9 +1.7 7
19 17.01 З 4
{9}
1000 м слаб. снег н/о -1.6 -2.2 96 -8 -8 1011.1 942.3
20 17.01 СЗ 4
{11}
17 км {снег} н/о -1.4 -2.1 95 -7 -7 1012.7 943.8
21 17.01 СЗ 4
{11}
20 км {снег} н/о -1.3 -2.2 94 -7 -7 1013.8 945.0
23 17.01 З 3
{6}
4600 м слаб. снег н/о -1.6 -1.8 99 -7 -7 1015.2 946.2
22 17.01 З 3
{7}
600 м слаб. снег н/о -1.5 -2.0 96 -7 -7 1014.7 945.7
00 18.01 СЗ 4
{11}
4100 м слаб. снег н/о -1.6 -1.7 99 -8 -8 1015.8 946.7 4
01 18.01 СЗ 3
{8}
17 км {снег} н/о -1.9 -2.1 99 -7 -7 1016.6 947.3
02 18.01 СЗ 3
{6}
10 км {снег} н/о -1.7 -2.1 97 -7 -7 1017.2 948.0
03 18.01 СЗ 3
{8}
19 км {снег} н/о -1.9 -2.4 96 -7 -7 1017.7 948.4
05 18.01
{4}
10 км н/о -2.0 -2.2 99 1019.2 949.7
04 18.01
{5}
10 км н/о -2.0 -2.4 97 1018.6 949.2
06 18.01
{8}
13 км {снег} н/о -2.3 -3.1 94 1019.6 950.0 -2.4 4
07 18.01
{2}
14 км н/о -3.4 -4.0 96 1020.2 950.4
08 18.01
{1}
11 км н/о -4.8 -5.4 96 1021.3 951.0
09 18.01
{2}
13 км н/о -2.5 -2.5 100 1021.5 951.7
11 18.01
{1}
20 км н/о -1.7 -4.1 84 1021.5 951.9
10 18.01 17 км н/о -0.9 -3.6 82 1021.7 952.3
12 18.01
{2}
15 км н/о -1.4 -4.2 81 1021.6 952.1
13 18.01
{2}
16 км н/о -1.5 -4.3 81 1021.3 951.9
14 18.01
{1}
19 км н/о -1.0 -4.5 77 1020.8 951.6
15 18.01
{2}
18 км н/о -1.1 -4.2 79 1020.7 951.4
17 18.01
{1}
13 км н/о -4.0 -5.2 91 1021.3 951.2
16 18.01
{2}
19 км н/о -2.4 -4.7 84 1020.8 951.2
18 18.01
{2}
12 км н/о -4.6 -5.9 91 1021.3 951.1 +0.1
19 18.01 1
{1}
9000 м н/о -6.2 -7.1 93 -9 -9 1021.8 951.1
20 18.01
{1}
10 км н/о -6.8 -7.7 93 1021.7 950.9
21 18.01
{1}
12 км н/о -7.6 -8.7 92 1022.0 950.9
23 18.01
{1}
14 км н/о -7.8 -8.9 92 1021.7 950.6
22 18.01 15 км н/о -8.2 -9.4 91 1022.1 950.8
00 19.01
{1}
15 км н/о -7.2 -8.4 91 1021.2 950.3
01 19.01
{3}
16 км н/о -5.1 -6.4 91 1020.2 949.9
02 19.01
{3}
16 км н/о -4.6 -6.2 89 1019.8 949.7
03 19.01
{3}
11 км н/о -5.1 -6.2 92 1019.3 949.1
05 19.01
{3}
14 км н/о -4.7 -5.9 91 1018.6 948.5
04 19.01
{2}
16 км н/о -4.6 -5.9 91 1019.0 948.9
06 19.01
{3}
16 км н/о -5.2 -6.8 88 1018.5 948.2 -8.7
07 19.01
{2}
19 км н/о -5.6 -7.3 88 1018.2 948.0
08 19.01
{4}
20 км н/о -4.8 -6.9 85 1018.0 947.9
09 19.01 Ю 2
{4}
20 км н/о -3.5 -6.0 83 -8 -8 1017.7 947.9

 

Местоположение метеостанции Элзенборн (Бельгия): широта 50.47 долгота 6.18 высота над уровнем моря 570 м.

В архиве по умолчанию представлена погода в Элзенборне за последнюю неделю. Архивные данные за месяц целиком и за предыдущие месяцы, начиная с января 2011 года, Вы можете получить, выбрав интересующий диапазон дат из раскрывающегося списка и нажав кнопку "Ввод!".


*Определитесь, кто Вы:
робот инопланетянин человек

Внимание! Время в таблицах - всемирное. Для получения местного времени необходимо прибавить поправку, которая равна 1 ч.

Смотрите также архив погоды в соседних городах и на ближайших метеорологических станциях:

Погода на Монт-Риги (Бельгия) (10 км)
Погода в Спа (Бельгия) (18 км)
Погода в Ахен-Орсбахе (Германия) (37 км)
Погода в Нюрбург-Барвайлере (Германия) (50 км)
Погода в Нёрфенихе (Германия) (53 км)
Погода в Бьерсете (Бельгия) (55 км)
Погода в Гайленкирхене (Германия) (56 км)
Погода в Маастрихте (Нидерланды) (57 км)
Погода на Базе ВВС Buechel (Германия) (71 км)
Погода в Дипенбеке (Бельгия) (72 км)

Пояснения к столбцам:

Ветер - указаны скорость ветра в м/с - средняя за 10 мин, порывы в срок и между сроками (в фигурных скобках) и направление, откуда дует ветер: С - северный, СВ - северо-восточный, В - восточный, ЮВ - юго-восточный, Ю - южный, ЮЗ - юго-западный, З - западный, СЗ - северо-западный.
Видимость - горизонтальная дальность видимости в метрах или километрах. При видимости от 1 до 10 км при отсутствии осадков обычно наблюдается дымка, при ухудшении видимости до 1 км и менее - туман. В сухую погоду видимость может ухудшаться дымом, пылью или мглою.
Явления - указаны атмосферные явления, наблюдавшиеся в срок или в последний час перед сроком; фигурными скобками обозначены явления, наблюдавшиеся между сроками (за 1-3 часа до срока); квадратными скобками обозначены град или гололедные отложения с указанием их диаметра в мм.
Облачность - указаны через наклонную черту общая и нижняя облачность в баллах и высота нижней границы облаков в метрах; квадратными скобками обозначены формы облаков: Ci - перистые, Cs - перисто-слоистые, Cc - перисто-кучевые, Ac - высококучевые, As - высокослоистые, Sc - слоисто-кучевые, Ns - слоисто-дождевые, Cu - кучевые, Cb - кучево-дождевые. Подробнее классификацию облаков см. в Атласе облаков (PDF).
T - Температура воздуха - температура, измеренная на высоте 2 м над землей.
Td - Температура точки росы - температура, при понижении до которой содержащийся в воздухе водяной пар достигнет насыщения.
f - Относительная влажность воздуха - влажноcть воздуха, измеренная на высоте 2 м над землей.
Te - Эффективная температура - температура, которую ощущает одетый по сезону человек в тени. Характеристика душности погоды. При расчете учитывается влияние влажности воздуха и скорости ветра на теплоощущения человека.
Tes - Эффективная температура на солнце - температура, которую ощущает человек, с поправкой на солнечный нагрев. Характеристика знойности погоды. Зависит от высоты солнца над горизонтом, облачности и скорости ветра. Ночью, в пасмурную погоду, а также при ветре 12 м/с и более поправка равна нулю.
P - Атмосферное давление - приведенное к уровню моря атмосферное давление.
Po - Атмосферное давление - измеренное на уровне метеостанции атмосферное давление.
Tmin - Минимальная температура - минимум температуры воздуха на высоте 2 м над землей.
Tmax - Максимальная температура - максимум температуры воздуха на высоте 2 м над землей.
R - Количество осадков - Количество выпавших осадков за период времени, мм. При наведении курсора мыши на число - период времени, за который выпало указанное количество осадков.
R24 - Количество осадков - Количество выпавших осадков за 24 часа, мм.
S - Снежный покров - Высота снежного покрова, см. При наведении курсора мыши на число - состояние снежного покрова и степень покрытия местности в баллах.